contact:dominique.lefevre@mio.osupytheas.fr, maurice.libes@osupytheas.fr, didier.mallarino@osupytheas.fr
Project:EMSO http://www.emso-fr.org/EMSO-France
Depth: 2436.0 m
Title:EMSO Ligure Ouest : Data MII capteur MICROCAT
DateTime_Computer,Latitude,Longitude,Temperature,Conductivity,Pressure,DateTime_Instrument
DateTime_Computer,Latitude,Longitude,degC,S m-1,dbar,DateTime_Instrument
2020-08-17T00:01:59Z,42.805,6.029,13.2971,4.59973,2470.077,2020-8-17T02:02:48Z
2020-08-17T00:05:02Z,42.805,6.029,13.2970,4.59974,2470.087,2020-8-17T02:05:51Z
2020-08-17T00:08:05Z,42.805,6.029,13.2974,4.59974,2470.063,2020-8-17T02:08:54Z
2020-08-17T00:11:08Z,42.805,6.029,13.2976,4.59974,2470.077,2020-8-17T02:11:58Z
2020-08-17T00:14:11Z,42.805,6.029,13.2972,4.59973,2470.1,2020-8-17T02:15:01Z
2020-08-17T00:17:15Z,42.805,6.029,13.2976,4.59975,2470.053,2020-8-17T02:18:04Z
2020-08-17T00:20:18Z,42.805,6.029,13.2972,4.59974,2470.04,2020-8-17T02:21:07Z
2020-08-17T00:23:21Z,42.805,6.029,13.2972,4.59975,2470.087,2020-8-17T02:24:11Z
2020-08-17T00:26:24Z,42.805,6.029,13.2974,4.59974,2470.063,2020-8-17T02:27:14Z
2020-08-17T00:29:28Z,42.805,6.029,13.2972,4.59975,2470.007,2020-8-17T02:30:17Z
2020-08-17T00:32:31Z,42.805,6.029,13.2971,4.59975,2470.053,2020-8-17T02:33:20Z
2020-08-17T00:35:34Z,42.805,6.029,13.2973,4.59973,2470.063,2020-8-17T02:36:23Z
2020-08-17T00:38:37Z,42.805,6.029,13.2971,4.59974,2470.1,2020-8-17T02:39:27Z
2020-08-17T00:41:41Z,42.805,6.029,13.2971,4.59973,2470.087,2020-8-17T02:42:30Z
2020-08-17T00:44:44Z,42.805,6.029,13.2971,4.59973,2470.077,2020-8-17T02:45:33Z
2020-08-17T00:47:47Z,42.805,6.029,13.2971,4.59973,2470.063,2020-8-17T02:48:36Z
2020-08-17T00:50:50Z,42.805,6.029,13.2972,4.59975,2470.087,2020-8-17T02:51:40Z
2020-08-17T00:53:53Z,42.805,6.029,13.2972,4.59974,2470.1,2020-8-17T02:54:43Z
2020-08-17T00:56:57Z,42.805,6.029,13.2970,4.59974,2470.063,2020-8-17T02:57:46Z
2020-08-17T01:00:00Z,42.805,6.029,13.2972,4.59973,2470.053,2020-8-17T03:00:50Z
2020-08-17T01:03:04Z,42.805,6.029,13.2971,4.59973,2470.04,2020-8-17T03:03:53Z
2020-08-17T01:06:07Z,42.805,6.029,13.2971,4.59975,2470.1,2020-8-17T03:06:56Z
2020-08-17T01:09:10Z,42.805,6.029,13.2972,4.59975,2470.04,2020-8-17T03:10:00Z
2020-08-17T01:12:14Z,42.805,6.029,13.2970,4.59976,2470.063,2020-8-17T03:13:03Z
2020-08-17T01:15:17Z,42.805,6.029,13.2974,4.59973,2470.063,2020-8-17T03:16:06Z
2020-08-17T01:18:20Z,42.805,6.029,13.2970,4.59976,2470.063,2020-8-17T03:19:09Z
2020-08-17T01:21:23Z,42.805,6.029,13.2971,4.59975,2470.063,2020-8-17T03:22:12Z
2020-08-17T01:24:26Z,42.805,6.029,13.2972,4.59980,2470.063,2020-8-17T03:25:16Z
2020-08-17T01:27:30Z,42.805,6.029,13.2976,4.59977,2470.063,2020-8-17T03:28:19Z
2020-08-17T01:30:33Z,42.805,6.029,13.2967,4.59974,2470.04,2020-8-17T03:31:22Z
2020-08-17T01:33:36Z,42.805,6.029,13.2974,4.59974,2470.053,2020-8-17T03:34:26Z
2020-08-17T01:36:40Z,42.805,6.029,13.2975,4.59976,2470.077,2020-8-17T03:37:29Z
2020-08-17T01:39:43Z,42.805,6.029,13.2971,4.59976,2470.1,2020-8-17T03:40:32Z
2020-08-17T01:42:46Z,42.805,6.029,13.2974,4.59974,2470.1,2020-8-17T03:43:35Z
2020-08-17T01:45:49Z,42.805,6.029,13.2976,4.59976,2470.087,2020-8-17T03:46:39Z
2020-08-17T01:48:53Z,42.805,6.029,13.2971,4.59974,2470.077,2020-8-17T03:49:42Z
2020-08-17T01:51:56Z,42.805,6.029,13.2971,4.59974,2470.077,2020-8-17T03:52:45Z
2020-08-17T01:54:59Z,42.805,6.029,13.2967,4.59976,2470.087,2020-8-17T03:55:48Z
2020-08-17T01:58:02Z,42.805,6.029,13.2974,4.59976,2470.087,2020-8-17T03:58:52Z
2020-08-17T02:01:06Z,42.805,6.029,13.2973,4.59975,2470.063,2020-8-17T04:01:55Z
2020-08-17T02:04:09Z,42.805,6.029,13.2970,4.59973,2470.087,2020-8-17T04:04:58Z
2020-08-17T02:07:12Z,42.805,6.029,13.2973,4.59974,2470.063,2020-8-17T04:08:01Z
2020-08-17T02:10:15Z,42.805,6.029,13.2974,4.59976,2470.063,2020-8-17T04:11:05Z
2020-08-17T02:13:19Z,42.805,6.029,13.2969,4.59973,2470.11,2020-8-17T04:14:08Z
2020-08-17T02:16:22Z,42.805,6.029,13.2971,4.59973,2470.063,2020-8-17T04:17:11Z
2020-08-17T02:19:25Z,42.805,6.029,13.2974,4.59974,2470.063,2020-8-17T04:20:15Z
2020-08-17T02:22:28Z,42.805,6.029,13.2975,4.59974,2470.087,2020-8-17T04:23:18Z
2020-08-17T02:25:32Z,42.805,6.029,13.2971,4.59976,2470.063,2020-8-17T04:26:21Z
2020-08-17T02:28:35Z,42.805,6.029,13.2972,4.59975,2470.077,2020-8-17T04:29:24Z
2020-08-17T02:31:38Z,42.805,6.029,13.2969,4.59976,2470.1,2020-8-17T04:32:28Z
2020-08-17T02:34:41Z,42.805,6.029,13.2970,4.59976,2470.063,2020-8-17T04:35:31Z
2020-08-17T02:37:45Z,42.805,6.029,13.2973,4.59973,2470.087,2020-8-17T04:38:34Z
2020-08-17T02:40:48Z,42.805,6.029,13.2973,4.59976,2470.1,2020-8-17T04:41:37Z
2020-08-17T02:43:51Z,42.805,6.029,13.2975,4.59975,2470.11,2020-8-17T04:44:41Z
2020-08-17T02:46:54Z,42.805,6.029,13.2974,4.59975,2470.124,2020-8-17T04:47:44Z
2020-08-17T02:49:58Z,42.805,6.029,13.2974,4.59974,2470.124,2020-8-17T04:50:47Z
2020-08-17T02:53:01Z,42.805,6.029,13.2970,4.59974,2470.124,2020-8-17T04:53:50Z
2020-08-17T02:56:04Z,42.805,6.029,13.2977,4.59976,2470.1,2020-8-17T04:56:53Z
2020-08-17T02:59:07Z,42.805,6.029,13.2971,4.59976,2470.087,2020-8-17T04:59:57Z
2020-08-17T03:02:10Z,42.805,6.029,13.2973,4.59974,2470.133,2020-8-17T05:03:00Z
2020-08-17T03:05:14Z,42.805,6.029,13.2975,4.59974,2470.124,2020-8-17T05:06:03Z
2020-08-17T03:08:17Z,42.805,6.029,13.2974,4.59974,2470.063,2020-8-17T05:09:06Z
2020-08-17T03:11:20Z,42.805,6.029,13.2972,4.59976,2470.087,2020-8-17T05:12:10Z
2020-08-17T03:14:24Z,42.805,6.029,13.2971,4.59974,2470.063,2020-8-17T05:15:13Z
2020-08-17T03:17:27Z,42.805,6.029,13.2971,4.59973,2470.04,2020-8-17T05:18:16Z
2020-08-17T03:20:30Z,42.805,6.029,13.2974,4.59974,2470.11,2020-8-17T05:21:20Z
2020-08-17T03:23:34Z,42.805,6.029,13.2973,4.59973,2470.147,2020-8-17T05:24:23Z
2020-08-17T03:26:37Z,42.805,6.029,13.2972,4.59974,2470.133,2020-8-17T05:27:26Z
2020-08-17T03:29:40Z,42.805,6.029,13.2968,4.59973,2470.11,2020-8-17T05:30:29Z
2020-08-17T03:32:43Z,42.805,6.029,13.2972,4.59973,2470.11,2020-8-17T05:33:33Z
2020-08-17T03:35:47Z,42.805,6.029,13.2973,4.59973,2470.11,2020-8-17T05:36:36Z
2020-08-17T03:38:50Z,42.805,6.029,13.2974,4.59974,2470.147,2020-8-17T05:39:40Z
2020-08-17T03:41:54Z,42.805,6.029,13.2974,4.59973,2470.156,2020-8-17T05:42:43Z
2020-08-17T03:44:57Z,42.805,6.029,13.2973,4.59973,2470.11,2020-8-17T05:45:46Z
2020-08-17T03:48:00Z,42.805,6.029,13.2968,4.59973,2470.133,2020-8-17T05:48:49Z
2020-08-17T03:51:03Z,42.805,6.029,13.2971,4.59974,2470.133,2020-8-17T05:51:52Z
2020-08-17T03:54:06Z,42.805,6.029,13.2973,4.59975,2470.133,2020-8-17T05:54:56Z
2020-08-17T03:57:10Z,42.805,6.029,13.2970,4.59974,2470.133,2020-8-17T05:57:59Z
2020-08-17T04:00:13Z,42.805,6.029,13.2972,4.59975,2470.147,2020-8-17T06:01:02Z
2020-08-17T04:03:16Z,42.805,6.029,13.2972,4.59975,2470.11,2020-8-17T06:04:05Z
2020-08-17T04:06:19Z,42.805,6.029,13.2969,4.59973,2470.133,2020-8-17T06:07:09Z
2020-08-17T04:09:22Z,42.805,6.029,13.2971,4.59974,2470.156,2020-8-17T06:10:12Z
2020-08-17T04:12:26Z,42.805,6.029,13.2974,4.59974,2470.133,2020-8-17T06:13:15Z
2020-08-17T04:15:29Z,42.805,6.029,13.2971,4.59974,2470.156,2020-8-17T06:16:18Z
2020-08-17T04:18:32Z,42.805,6.029,13.2972,4.59974,2470.133,2020-8-17T06:19:22Z
2020-08-17T04:21:35Z,42.805,6.029,13.2972,4.59975,2470.133,2020-8-17T06:22:25Z
2020-08-17T04:24:39Z,42.805,6.029,13.2971,4.59976,2470.156,2020-8-17T06:25:28Z
2020-08-17T04:27:42Z,42.805,6.029,13.2974,4.59975,2470.133,2020-8-17T06:28:31Z
2020-08-17T04:30:45Z,42.805,6.029,13.2968,4.59975,2470.133,2020-8-17T06:31:35Z
2020-08-17T04:33:48Z,42.805,6.029,13.2972,4.59974,2470.18,2020-8-17T06:34:38Z
2020-08-17T04:36:52Z,42.805,6.029,13.2974,4.59975,2470.156,2020-8-17T06:37:41Z
2020-08-17T04:39:55Z,42.805,6.029,13.2972,4.59975,2470.133,2020-8-17T06:40:44Z
2020-08-17T04:42:58Z,42.805,6.029,13.2974,4.59975,2470.194,2020-8-17T06:43:48Z
2020-08-17T04:46:02Z,42.805,6.029,13.2972,4.59976,2470.156,2020-8-17T06:46:51Z
2020-08-17T04:49:05Z,42.805,6.029,13.2974,4.59974,2470.147,2020-8-17T06:49:54Z
2020-08-17T04:52:08Z,42.805,6.029,13.2974,4.59974,2470.133,2020-8-17T06:52:57Z
2020-08-17T04:55:11Z,42.805,6.029,13.2970,4.59976,2470.156,2020-8-17T06:56:01Z
2020-08-17T04:58:15Z,42.805,6.029,13.2971,4.59974,2470.156,2020-8-17T06:59:04Z
2020-08-17T05:01:18Z,42.805,6.029,13.2974,4.59975,2470.156,2020-8-17T07:02:07Z
2020-08-17T05:04:21Z,42.805,6.029,13.2974,4.59973,2470.18,2020-8-17T07:05:10Z
2020-08-17T05:07:24Z,42.805,6.029,13.2973,4.59975,2470.156,2020-8-17T07:08:14Z
2020-08-17T05:10:28Z,42.805,6.029,13.2974,4.59975,2470.143,2020-8-17T07:11:17Z
2020-08-17T05:13:31Z,42.805,6.029,13.2976,4.59975,2470.143,2020-8-17T07:14:20Z
2020-08-17T05:16:34Z,42.805,6.029,13.2968,4.59974,2470.147,2020-8-17T07:17:23Z
2020-08-17T05:19:37Z,42.805,6.029,13.2973,4.59976,2470.156,2020-8-17T07:20:27Z
2020-08-17T05:22:40Z,42.805,6.029,13.2976,4.59975,2470.203,2020-8-17T07:23:30Z
2020-08-17T05:25:44Z,42.805,6.029,13.2972,4.59975,2470.18,2020-8-17T07:26:33Z
2020-08-17T05:28:47Z,42.805,6.029,13.2973,4.59973,2470.156,2020-8-17T07:29:36Z
2020-08-17T05:31:50Z,42.805,6.029,13.2974,4.59976,2470.156,2020-8-17T07:32:39Z
2020-08-17T05:34:53Z,42.805,6.029,13.2971,4.59976,2470.18,2020-8-17T07:35:43Z
2020-08-17T05:37:57Z,42.805,6.029,13.2975,4.59975,2470.171,2020-8-17T07:38:46Z
2020-08-17T05:41:00Z,42.805,6.029,13.2973,4.59973,2470.18,2020-8-17T07:41:49Z
2020-08-17T05:44:03Z,42.805,6.029,13.2975,4.59975,2470.156,2020-8-17T07:44:52Z
2020-08-17T05:47:06Z,42.805,6.029,13.2974,4.59974,2470.133,2020-8-17T07:47:56Z
2020-08-17T05:50:10Z,42.805,6.029,13.2971,4.59975,2470.156,2020-8-17T07:50:59Z
2020-08-17T05:53:13Z,42.805,6.029,13.2975,4.59974,2470.156,2020-8-17T07:54:02Z
2020-08-17T05:56:16Z,42.805,6.029,13.2976,4.59975,2470.18,2020-8-17T07:57:05Z
2020-08-17T05:59:19Z,42.805,6.029,13.2974,4.59974,2470.171,2020-8-17T08:00:09Z
2020-08-17T06:02:23Z,42.805,6.029,13.2974,4.59974,2470.147,2020-8-17T08:03:12Z
2020-08-17T06:05:26Z,42.805,6.029,13.2972,4.59975,2470.171,2020-8-17T08:06:15Z
2020-08-17T06:08:29Z,42.805,6.029,13.2974,4.59976,2470.171,2020-8-17T08:09:18Z
2020-08-17T06:11:32Z,42.805,6.029,13.2972,4.59975,2470.156,2020-8-17T08:12:22Z
2020-08-17T06:14:36Z,42.805,6.029,13.2972,4.59976,2470.147,2020-8-17T08:15:25Z
2020-08-17T06:17:39Z,42.805,6.029,13.2971,4.59974,2470.217,2020-8-17T08:18:28Z
2020-08-17T06:20:42Z,42.805,6.029,13.2971,4.59973,2470.171,2020-8-17T08:21:32Z
2020-08-17T06:23:45Z,42.805,6.029,13.2971,4.59974,2470.194,2020-8-17T08:24:35Z
2020-08-17T06:26:49Z,42.805,6.029,13.2971,4.59976,2470.133,2020-8-17T08:27:38Z
2020-08-17T06:29:52Z,42.805,6.029,13.2972,4.59976,2470.171,2020-8-17T08:30:41Z
2020-08-17T06:32:55Z,42.805,6.029,13.2971,4.59976,2470.156,2020-8-17T08:33:44Z
2020-08-17T06:35:58Z,42.805,6.029,13.2974,4.59974,2470.133,2020-8-17T08:36:48Z
2020-08-17T06:39:02Z,42.805,6.029,13.2971,4.59974,2470.156,2020-8-17T08:39:51Z
2020-08-17T06:42:05Z,42.805,6.029,13.2971,4.59975,2470.133,2020-8-17T08:42:54Z
2020-08-17T06:45:08Z,42.805,6.029,13.2971,4.59975,2470.147,2020-8-17T08:45:58Z
2020-08-17T06:48:11Z,42.805,6.029,13.2974,4.59975,2470.156,2020-8-17T08:49:01Z
2020-08-17T06:51:15Z,42.805,6.029,13.2976,4.59975,2470.147,2020-8-17T08:52:04Z
2020-08-17T06:54:18Z,42.805,6.029,13.2968,4.59976,2470.156,2020-8-17T08:55:07Z
2020-08-17T06:57:21Z,42.805,6.029,13.2974,4.59975,2470.18,2020-8-17T08:58:10Z
2020-08-17T07:00:24Z,42.805,6.029,13.2973,4.59975,2470.147,2020-8-17T09:01:14Z
2020-08-17T07:03:27Z,42.805,6.029,13.2972,4.59975,2470.124,2020-8-17T09:04:17Z
2020-08-17T07:06:31Z,42.805,6.029,13.2974,4.59975,2470.147,2020-8-17T09:07:20Z
2020-08-17T07:09:34Z,42.805,6.029,13.2971,4.59974,2470.133,2020-8-17T09:10:23Z
2020-08-17T07:12:38Z,42.805,6.029,13.2970,4.59976,2470.119,2020-8-17T09:13:27Z
2020-08-17T07:15:41Z,42.805,6.029,13.2972,4.59975,2470.133,2020-8-17T09:16:30Z
2020-08-17T07:18:44Z,42.805,6.029,13.2971,4.59975,2470.171,2020-8-17T09:19:33Z
2020-08-17T07:21:48Z,42.805,6.029,13.2972,4.59974,2470.11,2020-8-17T09:22:37Z
2020-08-17T07:24:51Z,42.805,6.029,13.2974,4.59976,2470.147,2020-8-17T09:25:40Z
2020-08-17T07:27:54Z,42.805,6.029,13.2972,4.59975,2470.119,2020-8-17T09:28:43Z
2020-08-17T07:30:57Z,42.805,6.029,13.2971,4.59976,2470.147,2020-8-17T09:31:47Z
2020-08-17T07:34:01Z,42.805,6.029,13.2974,4.59976,2470.11,2020-8-17T09:34:50Z
2020-08-17T07:37:04Z,42.805,6.029,13.2974,4.59975,2470.11,2020-8-17T09:37:53Z
2020-08-17T07:40:07Z,42.805,6.029,13.2970,4.59975,2470.147,2020-8-17T09:40:56Z
2020-08-17T07:43:10Z,42.805,6.029,13.2975,4.59976,2470.11,2020-8-17T09:44:00Z
2020-08-17T07:46:13Z,42.805,6.029,13.2971,4.59975,2470.133,2020-8-17T09:47:03Z
2020-08-17T07:49:17Z,42.805,6.029,13.2976,4.59976,2470.087,2020-8-17T09:50:06Z
2020-08-17T07:52:20Z,42.805,6.029,13.2973,4.59975,2470.133,2020-8-17T09:53:09Z
2020-08-17T07:55:23Z,42.805,6.029,13.2974,4.59974,2470.133,2020-8-17T09:56:13Z
2020-08-17T07:58:27Z,42.805,6.029,13.2971,4.59976,2470.133,2020-8-17T09:59:16Z
2020-08-17T08:01:30Z,42.805,6.029,13.2974,4.59974,2470.133,2020-8-17T10:02:19Z
2020-08-17T08:04:33Z,42.805,6.029,13.2971,4.59976,2470.133,2020-8-17T10:05:22Z
2020-08-17T08:07:36Z,42.805,6.029,13.2971,4.59974,2470.133,2020-8-17T10:08:26Z
2020-08-17T08:10:40Z,42.805,6.029,13.2974,4.59975,2470.087,2020-8-17T10:11:29Z
2020-08-17T08:13:43Z,42.805,6.029,13.2971,4.59976,2470.124,2020-8-17T10:14:32Z
2020-08-17T08:16:46Z,42.805,6.029,13.2974,4.59974,2470.147,2020-8-17T10:17:35Z
2020-08-17T08:19:49Z,42.805,6.029,13.2971,4.59976,2470.087,2020-8-17T10:20:39Z
2020-08-17T08:22:53Z,42.805,6.029,13.2974,4.59974,2470.087,2020-8-17T10:23:42Z
2020-08-17T08:25:56Z,42.805,6.029,13.2974,4.59974,2470.096,2020-8-17T10:26:45Z
2020-08-17T08:28:59Z,42.805,6.029,13.2970,4.59976,2470.11,2020-8-17T10:29:48Z
2020-08-17T08:32:02Z,42.805,6.029,13.2974,4.59974,2470.11,2020-8-17T10:32:52Z
2020-08-17T08:35:06Z,42.805,6.029,13.2975,4.59976,2470.1,2020-8-17T10:35:55Z
2020-08-17T08:38:09Z,42.805,6.029,13.2972,4.59975,2470.087,2020-8-17T10:38:58Z
2020-08-17T08:41:12Z,42.805,6.029,13.2976,4.59975,2470.063,2020-8-17T10:42:02Z
2020-08-17T08:44:16Z,42.805,6.029,13.2975,4.59975,2470.1,2020-8-17T10:45:05Z
2020-08-17T08:47:19Z,42.805,6.029,13.2973,4.59974,2470.063,2020-8-17T10:48:08Z
2020-08-17T08:50:22Z,42.805,6.029,13.2975,4.59974,2470.063,2020-8-17T10:51:12Z
2020-08-17T08:53:26Z,42.805,6.029,13.2973,4.59974,2470.1,2020-8-17T10:54:15Z
2020-08-17T08:56:29Z,42.805,6.029,13.2974,4.59975,2470.087,2020-8-17T10:57:18Z
2020-08-17T08:59:32Z,42.805,6.029,13.2973,4.59975,2470.1,2020-8-17T11:00:21Z
2020-08-17T09:02:35Z,42.805,6.029,13.2969,4.59975,2470.087,2020-8-17T11:03:25Z
2020-08-17T09:05:39Z,42.805,6.029,13.2973,4.59975,2470.077,2020-8-17T11:06:28Z
2020-08-17T09:08:42Z,42.805,6.029,13.2974,4.59974,2470.087,2020-8-17T11:09:31Z
2020-08-17T09:11:45Z,42.805,6.029,13.2976,4.59975,2470.124,2020-8-17T11:12:34Z
2020-08-17T09:14:49Z,42.805,6.029,13.2974,4.59975,2470.077,2020-8-17T11:15:38Z
2020-08-17T09:17:52Z,42.805,6.029,13.2973,4.59976,2470.077,2020-8-17T11:18:41Z
2020-08-17T09:20:55Z,42.805,6.029,13.2970,4.59973,2470.1,2020-8-17T11:21:44Z
2020-08-17T09:23:58Z,42.805,6.029,13.2970,4.59975,2470.077,2020-8-17T11:24:48Z
2020-08-17T09:27:01Z,42.805,6.029,13.2972,4.59975,2470.063,2020-8-17T11:27:51Z
2020-08-17T09:30:05Z,42.805,6.029,13.2975,4.59973,2470.063,2020-8-17T11:30:54Z
2020-08-17T09:33:08Z,42.805,6.029,13.2971,4.59974,2470.04,2020-8-17T11:33:57Z
2020-08-17T09:36:11Z,42.805,6.029,13.2975,4.59975,2470.049,2020-8-17T11:37:00Z
2020-08-17T09:39:14Z,42.805,6.029,13.2971,4.59974,2470.077,2020-8-17T11:40:04Z
2020-08-17T09:42:18Z,42.805,6.029,13.2973,4.59974,2470.077,2020-8-17T11:43:07Z
2020-08-17T09:45:21Z,42.805,6.029,13.2971,4.59974,2470.053,2020-8-17T11:46:10Z
2020-08-17T09:48:24Z,42.805,6.029,13.2973,4.59976,2470.077,2020-8-17T11:49:14Z
2020-08-17T09:51:28Z,42.805,6.029,13.2974,4.59974,2470.063,2020-8-17T11:52:17Z
2020-08-17T09:54:31Z,42.805,6.029,13.2974,4.59975,2470.04,2020-8-17T11:55:20Z
2020-08-17T09:57:34Z,42.805,6.029,13.2974,4.59975,2470.077,2020-8-17T11:58:24Z
2020-08-17T10:00:38Z,42.805,6.029,13.2973,4.59974,2470.091,2020-8-17T12:01:27Z
2020-08-17T10:03:41Z,42.805,6.029,13.2971,4.59975,2470.04,2020-8-17T12:04:30Z
2020-08-17T10:06:44Z,42.805,6.029,13.2974,4.59974,2470.063,2020-8-17T12:07:34Z
2020-08-17T10:09:47Z,42.805,6.029,13.2976,4.59974,2470.053,2020-8-17T12:10:37Z
2020-08-17T10:12:51Z,42.805,6.029,13.2974,4.59974,2470.04,2020-8-17T12:13:40Z
2020-08-17T10:15:54Z,42.805,6.029,13.2971,4.59975,2470.017,2020-8-17T12:16:43Z
2020-08-17T10:18:57Z,42.805,6.029,13.2972,4.59975,2470.077,2020-8-17T12:19:46Z
2020-08-17T10:22:00Z,42.805,6.029,13.2972,4.59975,2470.04,2020-8-17T12:22:50Z
2020-08-17T10:25:04Z,42.805,6.029,13.2974,4.59976,2470.04,2020-8-17T12:25:53Z
2020-08-17T10:28:07Z,42.805,6.029,13.2974,4.59974,2470.017,2020-8-17T12:28:56Z
2020-08-17T10:31:10Z,42.805,6.029,13.2972,4.59973,2470.053,2020-8-17T12:31:59Z
2020-08-17T10:34:13Z,42.805,6.029,13.2974,4.59974,2470.053,2020-8-17T12:35:03Z
2020-08-17T10:37:17Z,42.805,6.029,13.2976,4.59973,2470.04,2020-8-17T12:38:06Z
2020-08-17T10:40:20Z,42.805,6.029,13.2971,4.59973,2470.053,2020-8-17T12:41:09Z
2020-08-17T10:43:23Z,42.805,6.029,13.2975,4.59974,2470.03,2020-8-17T12:44:13Z
2020-08-17T10:46:27Z,42.805,6.029,13.2971,4.59973,2470.017,2020-8-17T12:47:16Z
2020-08-17T10:49:30Z,42.805,6.029,13.2971,4.59975,2469.993,2020-8-17T12:50:19Z
2020-08-17T10:52:33Z,42.805,6.029,13.2975,4.59974,2469.993,2020-8-17T12:53:22Z
2020-08-17T10:55:36Z,42.805,6.029,13.2973,4.59976,2470.03,2020-8-17T12:56:26Z
2020-08-17T10:58:40Z,42.805,6.029,13.2972,4.59973,2470.017,2020-8-17T12:59:29Z
2020-08-17T11:01:43Z,42.805,6.029,13.2972,4.59973,2470.04,2020-8-17T13:02:32Z
2020-08-17T11:04:46Z,42.805,6.029,13.2973,4.59973,2470.017,2020-8-17T13:05:36Z
2020-08-17T11:07:49Z,42.805,6.029,13.2968,4.59974,2469.993,2020-8-17T13:08:39Z
2020-08-17T11:10:53Z,42.805,6.029,13.2974,4.59974,2470.003,2020-8-17T13:11:42Z
2020-08-17T11:13:56Z,42.805,6.029,13.2975,4.59976,2470.017,2020-8-17T13:14:45Z
2020-08-17T11:17:00Z,42.805,6.029,13.2974,4.59976,2470.017,2020-8-17T13:17:49Z
2020-08-17T11:20:03Z,42.805,6.029,13.2975,4.59974,2469.97,2020-8-17T13:20:52Z
2020-08-17T11:23:06Z,42.805,6.029,13.2968,4.59976,2469.993,2020-8-17T13:23:55Z
2020-08-17T11:26:10Z,42.805,6.029,13.2974,4.59973,2470.007,2020-8-17T13:26:59Z
2020-08-17T11:29:13Z,42.805,6.029,13.2975,4.59974,2469.993,2020-8-17T13:30:02Z
2020-08-17T11:32:16Z,42.805,6.029,13.2972,4.59975,2469.993,2020-8-17T13:33:06Z
2020-08-17T11:35:20Z,42.805,6.029,13.2972,4.59974,2470.017,2020-8-17T13:36:09Z
2020-08-17T11:38:23Z,42.805,6.029,13.2974,4.59973,2470.017,2020-8-17T13:39:12Z
2020-08-17T11:41:26Z,42.805,6.029,13.2972,4.59975,2469.984,2020-8-17T13:42:16Z
2020-08-17T11:44:29Z,42.805,6.029,13.2973,4.59974,2470.007,2020-8-17T13:45:19Z
2020-08-17T11:47:33Z,42.805,6.029,13.2972,4.59973,2469.993,2020-8-17T13:48:22Z
2020-08-17T11:50:36Z,42.805,6.029,13.2971,4.59973,2470.03,2020-8-17T13:51:25Z
2020-08-17T11:53:39Z,42.805,6.029,13.2975,4.59974,2470.003,2020-8-17T13:54:28Z
2020-08-17T11:56:42Z,42.805,6.029,13.2975,4.59973,2469.993,2020-8-17T13:57:32Z
2020-08-17T11:59:46Z,42.805,6.029,13.2974,4.59975,2470.007,2020-8-17T14:00:35Z
2020-08-17T12:02:49Z,42.805,6.029,13.2978,4.59976,2470.007,2020-8-17T14:03:39Z
2020-08-17T12:05:53Z,42.805,6.029,13.2972,4.59973,2470.017,2020-8-17T14:06:42Z
2020-08-17T12:08:56Z,42.805,6.029,13.2973,4.59974,2470.017,2020-8-17T14:09:45Z
2020-08-17T12:11:59Z,42.805,6.029,13.2970,4.59973,2469.97,2020-8-17T14:12:49Z
2020-08-17T12:15:03Z,42.805,6.029,13.2970,4.59973,2470.053,2020-8-17T14:15:52Z
2020-08-17T12:18:06Z,42.805,6.029,13.2969,4.59975,2470.017,2020-8-17T14:18:55Z
2020-08-17T12:21:09Z,42.805,6.029,13.2970,4.59974,2470.03,2020-8-17T14:21:58Z
2020-08-17T12:24:12Z,42.805,6.029,13.2970,4.59974,2470.03,2020-8-17T14:25:02Z
2020-08-17T12:27:16Z,42.805,6.029,13.2973,4.59974,2470.017,2020-8-17T14:28:05Z
2020-08-17T12:30:19Z,42.805,6.029,13.2973,4.59976,2469.993,2020-8-17T14:31:08Z
2020-08-17T12:33:22Z,42.805,6.029,13.2976,4.59974,2470.03,2020-8-17T14:34:12Z
2020-08-17T12:36:25Z,42.805,6.029,13.2972,4.59974,2469.993,2020-8-17T14:37:15Z
2020-08-17T12:39:29Z,42.805,6.029,13.2971,4.59973,2470.03,2020-8-17T14:40:18Z
2020-08-17T12:42:32Z,42.805,6.029,13.2971,4.59976,2470.03,2020-8-17T14:43:21Z
2020-08-17T12:45:35Z,42.805,6.029,13.2969,4.59978,2470.007,2020-8-17T14:46:25Z
2020-08-17T12:48:39Z,42.805,6.029,13.2971,4.59974,2469.984,2020-8-17T14:49:28Z
2020-08-17T12:51:42Z,42.805,6.029,13.2974,4.59975,2470.017,2020-8-17T14:52:31Z
2020-08-17T12:54:45Z,42.805,6.029,13.2972,4.59973,2470.007,2020-8-17T14:55:35Z
2020-08-17T12:57:48Z,42.805,6.029,13.2971,4.59974,2469.993,2020-8-17T14:58:38Z
2020-08-17T13:00:52Z,42.805,6.029,13.2972,4.59973,2470.007,2020-8-17T15:01:41Z
2020-08-17T13:03:55Z,42.805,6.029,13.2972,4.59974,2470.017,2020-8-17T15:04:44Z
2020-08-17T13:06:58Z,42.805,6.029,13.2973,4.59975,2470.017,2020-8-17T15:07:47Z
2020-08-17T13:10:01Z,42.805,6.029,13.2974,4.59973,2470.017,2020-8-17T15:10:51Z
2020-08-17T13:13:05Z,42.805,6.029,13.2976,4.59975,2470.017,2020-8-17T15:13:54Z
2020-08-17T13:16:08Z,42.805,6.029,13.2974,4.59974,2470.017,2020-8-17T15:16:57Z
2020-08-17T13:19:11Z,42.805,6.029,13.2974,4.59973,2469.993,2020-8-17T15:20:01Z
2020-08-17T13:22:15Z,42.805,6.029,13.2969,4.59974,2470.007,2020-8-17T15:23:04Z
2020-08-17T13:25:18Z,42.805,6.029,13.2971,4.59974,2470.003,2020-8-17T15:26:07Z
2020-08-17T13:28:21Z,42.805,6.029,13.2974,4.59975,2470.007,2020-8-17T15:29:10Z
2020-08-17T13:31:24Z,42.805,6.029,13.2974,4.59976,2470.017,2020-8-17T15:32:14Z
2020-08-17T13:34:27Z,42.805,6.029,13.2970,4.59974,2470.007,2020-8-17T15:35:17Z
2020-08-17T13:37:31Z,42.805,6.029,13.2974,4.59973,2470.04,2020-8-17T15:38:20Z
2020-08-17T13:40:34Z,42.805,6.029,13.2972,4.59973,2470.053,2020-8-17T15:41:23Z
2020-08-17T13:43:37Z,42.805,6.029,13.2974,4.59974,2470.007,2020-8-17T15:44:27Z
2020-08-17T13:46:41Z,42.805,6.029,13.2973,4.59976,2470.03,2020-8-17T15:47:30Z
2020-08-17T13:49:44Z,42.805,6.029,13.2972,4.59976,2470.017,2020-8-17T15:50:33Z
2020-08-17T13:52:47Z,42.805,6.029,13.2970,4.59975,2470.03,2020-8-17T15:53:37Z
2020-08-17T13:55:51Z,42.805,6.029,13.2972,4.59974,2470.03,2020-8-17T15:56:40Z
2020-08-17T13:58:54Z,42.805,6.029,13.2972,4.59974,2470.017,2020-8-17T15:59:43Z
2020-08-17T14:01:57Z,42.805,6.029,13.2973,4.59974,2470.053,2020-8-17T16:02:47Z
2020-08-17T14:05:01Z,42.805,6.029,13.2974,4.59976,2470.04,2020-8-17T16:05:50Z
2020-08-17T14:08:04Z,42.805,6.029,13.2971,4.59976,2470.04,2020-8-17T16:08:53Z
2020-08-17T14:11:07Z,42.805,6.029,13.2973,4.59973,2470.017,2020-8-17T16:11:56Z
2020-08-17T14:14:10Z,42.805,6.029,13.2974,4.59973,2470.04,2020-8-17T16:15:00Z
2020-08-17T14:17:14Z,42.805,6.029,13.2972,4.59974,2470.053,2020-8-17T16:18:03Z
2020-08-17T14:20:17Z,42.805,6.029,13.2974,4.59974,2470.053,2020-8-17T16:21:06Z
2020-08-17T14:23:20Z,42.805,6.029,13.2973,4.59975,2470.053,2020-8-17T16:24:10Z
2020-08-17T14:26:24Z,42.805,6.029,13.2974,4.59973,2470.063,2020-8-17T16:27:13Z
2020-08-17T14:29:27Z,42.805,6.029,13.2975,4.59973,2470.077,2020-8-17T16:30:16Z
2020-08-17T14:32:30Z,42.805,6.029,13.2972,4.59975,2470.063,2020-8-17T16:33:19Z
2020-08-17T14:35:33Z,42.805,6.029,13.2976,4.59974,2470.077,2020-8-17T16:36:23Z
2020-08-17T14:38:37Z,42.805,6.029,13.2974,4.59974,2470.077,2020-8-17T16:39:26Z
2020-08-17T14:41:40Z,42.805,6.029,13.2968,4.59974,2470.063,2020-8-17T16:42:29Z
2020-08-17T14:44:43Z,42.805,6.029,13.2973,4.59973,2470.063,2020-8-17T16:45:32Z
2020-08-17T14:47:46Z,42.805,6.029,13.2973,4.59975,2470.1,2020-8-17T16:48:36Z
2020-08-17T14:50:49Z,42.805,6.029,13.2974,4.59975,2470.063,2020-8-17T16:51:39Z
2020-08-17T14:53:53Z,42.805,6.029,13.2975,4.59978,2470.087,2020-8-17T16:54:42Z
2020-08-17T14:56:56Z,42.805,6.029,13.2975,4.59975,2470.063,2020-8-17T16:57:45Z
2020-08-17T14:59:59Z,42.805,6.029,13.2972,4.59975,2470.11,2020-8-17T17:00:49Z
2020-08-17T15:03:03Z,42.805,6.029,13.2976,4.59976,2470.1,2020-8-17T17:03:52Z
2020-08-17T15:06:06Z,42.805,6.029,13.2971,4.59974,2470.063,2020-8-17T17:06:55Z
2020-08-17T15:09:09Z,42.805,6.029,13.2978,4.59976,2470.063,2020-8-17T17:09:58Z
2020-08-17T15:12:12Z,42.805,6.029,13.2971,4.59974,2470.063,2020-8-17T17:13:02Z
2020-08-17T15:15:16Z,42.805,6.029,13.2974,4.59975,2470.11,2020-8-17T17:16:05Z